Voltar ao catálogo

STARLINK-30069

AtivoComunicaçõesVLEO
NORAD 56834·PAYLOAD·🇺🇸 United States

Lançado Jun 4, 2023 de Cape Canaveral Space Force Station

Loading…

Próximas Passagens (próximas 24 horas)

TLE

AtualizadoSource: CelesTrak SupGP

Época: Sep 14, 2026, 22:34 UTC

1 56834C 23079M   26257.94076389  .00021778  00000+0  78899-3 0  2570
2 56834  42.9997 114.8677 0001427 268.5791  15.3912 15.27560127    12

Acompanhe STARLINK-30069 em tempo real com AllMySat

Download on the App Store